Location: *
(38.7776°N, 95.1874°W)
Time: 12:52:30
(UTC+00:00)

Daily predictions for brighter satellites

Satellite Brightness Start Highest point End
(mag) Time Altitude Azimuth Time Altitude Azimuth Time Altitude Azimuth
STARLINK-60 3.3 12:03:05 46° WSW 12:03:30 49° SW 12:06:44 10° SSE
STARLINK 1039 3.9 12:03:10 37° W 12:04:18 47° NW 12:08:19 10° NE
STARLINK 1045 4.0 12:07:58 32° W 12:09:18 43° NW 12:13:16 10° NE
STARLINK-29 3.2 12:08:02 32° NW 12:09:33 80° NE 12:13:04 10° SE
Cosmos 2322 Rocket 2.9 12:08:33 22° WSW 12:11:06 32° WNW 12:16:09 10° N
STARLINK-52 3.2 12:10:45 28° NW 12:12:27 75° NE 12:15:57 10° SE
Cosmos 2263 Rocket 3.1 12:11:20 24° WNW 12:13:00 27° WSW 12:17:43 10° SSW
Cosmos 2056 Rocket 3.7 12:08:14 11° NNW 12:13:21 53° WSW 12:18:33 10° S
Cosmos 1340 Rocket 3.2 12:10:31 10° S 12:14:22 63° E 12:18:14 10° NNE
STARLINK 1050 4.2 12:12:59 28° WNW 12:14:29 38° NNW 12:18:23 10° NE
ADEOS Rocket 3.3 12:13:45 10° SSE 12:19:09 63° ENE 12:24:53 10° N
Lacrosse 5 rocket 3.7 12:16:17 10° NNW 12:19:21 18° NNE 12:22:19 10° ENE
STARLINK 1055 4.3 12:17:40 25° W 12:19:24 36° NNW 12:23:15 10° NE
Cosmos 1076 Rocket 4.2 12:16:40 10° N 12:21:00 57° E 12:25:16 10° SSE
Cosmos 2058 Rocket 4.1 12:18:46 10° SW 12:22:17 23° WNW 12:25:49 10° NNW
Cosmos 1844 Rocket 2.9 12:18:13 10° NNW 12:23:52 72° ENE 12:29:29 10° SSE
STARLINK 1022 4.4 12:22:27 22° W 12:24:23 33° NNW 12:28:10 10° NE
Cosmos 1300 2.7 12:21:14 10° SSW 12:24:57 53° W 12:28:42 10° N
CZ-4B DEB 4.4 12:19:47 10° N 12:25:03 46° WNW 12:30:16 10° SW
Okean O Rocket 1.6 12:21:44 10° N 12:26:06 59° WNW 12:30:25 10° SSW
ATLAS 3B R/B 3.1 12:20:53 14° NW 12:26:13 41° WSW 12:32:40 10° S
ALOS 3.1 12:27:05 10° NNW 12:31:01 28° WNW 12:34:57 10° SW
COSMO-SKYMED 1 3.7 12:29:29 10° SSW 12:32:57 23° W 12:36:25 10° NW
Cosmos 1437 2.6 12:32:56 10° NNW 12:35:55 56° W 12:38:53 10° S
Cosmos 2333 Rocket 2.5 12:30:39 10° SSW 12:36:23 75° ESE 12:42:10 10° NNE
H-2A R/B 2.7 12:32:55 10° NNE 12:36:49 89° E 12:40:39 10° SSW
Cosmos 1455 4.1 12:33:31 10° SSE 12:37:01 34° E 12:40:33 10° NNE
USA 215 3.6 12:32:40 10° ESE 12:39:06 65° NE 12:45:34 10° NW
FENGYUN 3A 4.5 12:37:13 10° N 12:41:46 28° WNW 12:46:19 10° SW
CENTAUR R/B 4.1 12:36:48 11° WNW 12:43:04 26° WSW 12:49:52 10° SSW
Cosmos 2084 Rocket 3.4 12:39:20 10° SW 12:43:39 67° NW 12:48:03 10° NNE
Cosmos 2058 2.9 12:40:50 10° N 12:45:05 86° W 12:49:16 10° S
Envisat 3.8 12:44:30 10° NNE 12:49:31 57° E 12:54:30 10° S
Cosmos 1867 4.5 12:45:15 10° NNW 12:50:32 48° NE 12:55:46 10° SE
Milstar 3 Cent rocket 4.4 12:39:04 10° WSW 12:53:28 47° S 13:00:31 10° ESE
Cosmos 2360 Rocket 3.1 12:50:15 10° WSW 12:55:02 28° WNW 12:59:53 10° N
Cosmos 1452 Rocket 3.6 12:50:10 10° NNW 12:55:22 62° WSW 13:00:31 10° S
SL-16 R/B 3.9 12:53:22 10° WNW 12:55:51 13° NW 12:58:21 10° NNW
Cosmos 2219 Rocket 2.2 12:51:27 10° SSW 12:57:06 77° WNW 13:02:49 10° NNE
Iridium 96 4.4 12:57:30 10° SSW 12:59:39 27° W 13:01:43 10° NNW
Helios 1A Rocket 3.7 12:57:30 10° N 13:01:09 30° WNW 13:04:47 10° SW
Cosmos 2333 4.5 12:55:55 10° SW 13:01:30 49° WNW 13:07:06 10° NNE
Cosmos 2322 4.1 12:57:22 10° SW 13:02:41 41° WNW 13:08:01 10° N
Cosmos 1892 2.6 13:01:14 10° N 13:05:03 76° W 13:08:48 10° S
Cosmos 1821 Rocket 4.2 13:01:43 10° NNW 13:07:33 47° W 13:13:19 10° SSW
CZ-3 R/B 3.5 12:56:46 10° W 13:08:48 26° SW 13:13:46 10° SSE
